Spokane Felts, WA
on Monday, November 19, 2012

Monday
Previous Day Next Day
Daily Summary
 ActualAverageRecord
Temperature
Mean Temperature °F 36°F  
Max Temperature 54°F 42°F 57°F (2003)
Min Temperature 42°F 30°F 15°F (2000)
Degree Days
Heating Degree Days 17 29  
Month to date heating degree days 430 494  
Since 1 July heating degree days 989 1231  
Cooling Degree Days 0 0  
Month to date cooling degree days 0 0  
Year to date cooling degree days 509 406  
Moisture
Dew Point 40°F   
Average Humidity 76    
Maximum Humidity 93    
Minimum Humidity 59    
Precipitation
Precipitation 0.70 in 0.08 in 0.70 in (2012)
Month to date precipitation 2.05 1.36  
Year to date precipitation 17.64 14.31  
Wind
Wind Speed 14 mph   
Max Wind Speed 29 mph   
Max Gust Speed 43 mph   
Visibility 8 miles   
Events Rain   

Key: T is trace of precipitation, MM is missing value
Source: NWS Daily Summary
Time(PST)TemperatureDew PointHumidity Pressure Visibility Wind DirectionWind SpeedGust SpeedPrecipitationEvents Conditions
12:53 AM 44.1°F 33.1°F 65% 29.85 in 10.0 miles Variable 5.8 mph - 0.00 in Rain Light Rain
1:53 AM 44.1°F 34.0°F 68% 29.82 in 10.0 miles East 9.2 mph - 0.00 in   Overcast
2:43 AM 44.6°F 35.6°F 71% 29.85 in 6.0 miles South 8.1 mph - 0.05 in Rain Rain
2:53 AM 44.1°F 36.0°F 73% 29.86 in 5.0 miles South 13.8 mph 24.2 mph 0.06 in Rain Rain
3:53 AM 43.0°F 36.0°F 76% 29.85 in 10.0 miles ESE 6.9 mph - 0.04 in Rain Light Rain
4:53 AM 42.1°F 37.0°F 82% 29.84 in 8.0 miles ESE 10.4 mph - 0.03 in Rain Light Rain
5:30 AM 42.8°F 37.4°F 81% 29.82 in 10.0 miles ESE 9.2 mph 16.1 mph 0.00 in Rain Light Rain
5:53 AM 42.1°F 36.0°F 79% 29.84 in 6.0 miles East 9.2 mph 19.6 mph 0.01 in Rain Light Rain
6:53 AM 42.1°F 37.0°F 82% 29.84 in 4.0 miles ESE 13.8 mph 19.6 mph 0.05 in Rain Rain
7:53 AM 43.0°F 37.0°F 80% 29.83 in 8.0 miles ESE 12.7 mph 23.0 mph 0.04 in Rain Light Rain
8:53 AM 44.1°F 37.9°F 79% 29.82 in 6.0 miles SE 11.5 mph - 0.05 in Rain Light Rain
9:53 AM 46.9°F 37.9°F 71% 29.80 in 10.0 miles SSE 13.8 mph 24.2 mph 0.03 in Rain Light Rain
10:53 AM 48.0°F 37.9°F 68% 29.79 in 10.0 miles SSE 11.5 mph 23.0 mph 0.03 in Rain Light Rain
11:53 AM 48.9°F 37.9°F 66% 29.75 in 8.0 miles SE 23.0 mph 39.1 mph 0.02 in Rain Light Rain
12:53 PM 52.0°F 37.9°F 59% 29.73 in 10.0 miles SSE 20.7 mph 32.2 mph 0.00 in   Overcast
1:53 PM 51.1°F 37.9°F 61% 29.70 in 10.0 miles SE 19.6 mph 32.2 mph 0.00 in Rain Light Rain
2:53 PM 51.1°F 39.9°F 66% 29.70 in 8.0 miles SSE 25.3 mph 35.7 mph 0.03 in Rain Rain
3:53 PM 51.1°F 39.9°F 66% 29.70 in 10.0 miles South 20.7 mph 28.8 mph 0.06 in Rain Light Rain
4:53 PM 51.1°F 41.0°F 68% 29.68 in 10.0 miles SSE 23.0 mph 35.7 mph 0.03 in Rain Light Rain
5:53 PM 53.1°F 39.0°F 59% 29.66 in 10.0 miles SSE 27.6 mph 42.6 mph 0.00 in   Overcast
6:53 PM 53.1°F 39.0°F 59% 29.70 in 10.0 miles SW 12.7 mph 19.6 mph 0.00 in   Overcast
7:53 PM 53.1°F 39.9°F 61% 29.71 in 10.0 miles South 10.4 mph 21.9 mph 0.00 in   Overcast
8:53 PM 48.9°F 42.1°F 77% 29.74 in 6.0 miles SSW 10.4 mph - 0.02 in Rain Light Rain
9:00 PM 48.2°F 42.8°F 82% 29.73 in 4.0 miles SSW 6.9 mph - 0.00 in Rain Light Rain
9:48 PM 48.2°F 44.6°F 87% 29.74 in 4.0 miles SSW 6.9 mph - 0.04 in Rain Rain
9:53 PM 48.0°F 44.1°F 86% 29.75 in 5.0 miles SW 5.8 mph - 0.05 in Rain Rain
10:18 PM 48.2°F 44.6°F 87% 29.77 in 6.0 miles SSW 5.8 mph - 0.03 in Rain Rain
10:25 PM 48.2°F 44.6°F 87% 29.77 in 4.0 miles SW 6.9 mph - 0.04 in Rain Rain
10:48 PM 48.2°F 44.6°F 87% 29.77 in 5.0 miles SW 3.5 mph - 0.09 in Rain Rain
10:53 PM 46.9°F 44.1°F 90% 29.78 in 6.0 miles SW 4.6 mph - 0.09 in Rain Light Rain
11:22 PM 48.2°F 44.6°F 87% 29.78 in 9.0 miles SW 5.8 mph - 0.03 in Rain Light Rain
11:53 PM 48.0°F 43.0°F 83% 29.79 in 8.0 miles South 5.8 mph - 0.06 in Rain Light Rain
Moon Phase
Nov. 19 Nov. 20 Nov. 28 Dec. 06 Dec. 13
Sunrise:07:01 AM (PST) Moon Rise:11:56 AM (PST)11/19
Sunset:04:07 PM (PST) Moon Set:10:52 PM (PST)11/19

Copyright © 2014 The Weather Underground, Inc.